| time (UTC) | temp F | wind direction | speed MPH | gust MPH | rain 1hr in | rain 24hr in | rain mn in | humidity % | barometer mb |
| 20260503233036 | 78 | 205 | 6.0 | 7.0 | 0.00 | 0.00 | 0.00 | 52 | 1009.1 |
| 20260503232527 | 78 | 194 | 6.0 | 7.0 | 0.00 | 0.00 | 0.00 | 52 | 1009.1 |
| 20260503232024 | 78 | 208 | 5.0 | 7.0 | 0.00 | 0.00 | 0.00 | 49 | 1009.2 |
| 20260503231550 | 77 | 206 | 5.0 | 8.0 | 0.00 | 0.00 | 0.00 | 50 | 1009.2 |
| 20260503231026 | 77 | 202 | 6.0 | 8.0 | 0.00 | 0.00 | 0.00 | 55 | 1009.3 |
| 20260503230526 | 78 | 205 | 5.0 | 7.0 | 0.00 | 0.00 | 0.00 | 50 | 1009.3 |
| 20260503230041 | 78 | 200 | 4.0 | 8.0 | 0.00 | 0.00 | 0.00 | 50 | 1009.4 |
| 20260503225529 | 76 | 150 | 4.0 | 8.0 | 0.00 | 0.00 | 0.00 | 52 | 1009.5 |
| 20260503225028 | 76 | 203 | 6.0 | 8.0 | 0.00 | 0.00 | 0.00 | 55 | 1009.5 |
| 20260503224538 | 78 | 200 | 6.0 | 8.0 | 0.00 | 0.00 | 0.00 | 55 | 1009.6 |
| 20260503224027 | 78 | 203 | 4.0 | 7.0 | 0.00 | 0.00 | 0.00 | 52 | 1009.6 |
| 20260503223525 | 77 | 198 | 5.0 | 7.0 | 0.00 | 0.00 | 0.00 | 53 | 1009.6 |
| 20260503223042 | 78 | 210 | 5.0 | 7.0 | 0.00 | 0.00 | 0.00 | 58 | 1009.7 |
| 20260503222524 | 78 | 205 | 5.0 | 7.0 | 0.00 | 0.00 | 0.00 | 56 | 1009.8 |
| 20260503222022 | 78 | 214 | 4.0 | 7.0 | 0.00 | 0.00 | 0.00 | 50 | 1009.8 |
| 20260503221536 | 77 | 198 | 5.0 | 8.0 | 0.00 | 0.00 | 0.00 | 51 | 1009.9 |
| 20260503221023 | 76 | 215 | 6.0 | 8.0 | 0.00 | 0.00 | 0.00 | 54 | 1009.9 |
| 20260503220526 | 76 | 198 | 6.0 | 8.0 | 0.00 | 0.00 | 0.00 | 54 | 1010.1 |
| 20260503220042 | 76 | 187 | 5.0 | 8.0 | 0.00 | 0.00 | 0.00 | 54 | 1010.2 |
| 20260503215522 | 76 | 193 | 6.0 | 8.0 | 0.00 | 0.00 | 0.00 | 54 | 1010.2 |
| 20260503215025 | 77 | 205 | 5.0 | 8.0 | 0.00 | 0.00 | 0.00 | 50 | 1010.3 |
| 20260503214550 | 76 | 193 | 5.0 | 8.0 | 0.00 | 0.00 | 0.00 | 52 | 1010.5 |
| 20260503214025 | 76 | 207 | 5.0 | 8.0 | 0.00 | 0.00 | 0.00 | 55 | 1010.5 |
| 20260503213524 | 76 | 210 | 5.0 | 8.0 | 0.00 | 0.00 | 0.00 | 54 | 1010.5 |
| 20260503213102 | 75 | 203 | 5.0 | 7.0 | 0.00 | 0.00 | 0.00 | 58 | 1010.6 |
| 20260503212523 | 75 | 181 | 5.0 | 8.0 | 0.00 | 0.00 | 0.00 | 63 | 1010.7 |
| 20260503212023 | 74 | 207 | 6.0 | 8.0 | 0.00 | 0.00 | 0.00 | 60 | 1010.8 |
| 20260503211600 | 74 | 201 | 5.0 | 8.0 | 0.00 | 0.00 | 0.00 | 63 | 1010.8 |
| 20260503211030 | 74 | 192 | 6.0 | 8.0 | 0.00 | 0.00 | 0.00 | 64 | 1010.8 |
| 20260503210523 | 75 | 205 | 6.0 | 8.0 | 0.00 | 0.00 | 0.00 | 65 | 1010.9 |
| 20260503210036 | 76 | 184 | 5.0 | 7.0 | 0.00 | 0.00 | 0.00 | 54 | 1011.0 |
| 20260503205523 | 76 | 201 | 5.0 | 6.0 | 0.00 | 0.00 | 0.00 | 55 | 1011.0 |
| 20260503205027 | 75 | 215 | 4.0 | 8.0 | 0.00 | 0.00 | 0.00 | 61 | 1011.1 |
| 20260503204552 | 75 | 210 | 5.0 | 8.0 | 0.00 | 0.00 | 0.00 | 64 | 1011.2 |
| 20260503204026 | 75 | 208 | 5.0 | 10.0 | 0.00 | 0.00 | 0.00 | 63 | 1011.2 |
| 20260503203522 | 76 | 201 | 6.0 | 10.0 | 0.00 | 0.00 | 0.00 | 64 | 1011.3 |
| 20260503203042 | 78 | 194 | 3.0 | 6.0 | 0.00 | 0.00 | 0.00 | 60 | 1011.4 |
| 20260503202523 | 78 | 20 | 2.0 | 3.0 | 0.00 | 0.00 | 0.00 | 55 | 1011.4 |
| 20260503202023 | 78 | 6 | 2.0 | 3.0 | 0.00 | 0.00 | 0.00 | 50 | 1011.4 |
| 20260503201539 | 78 | 4 | 2.0 | 4.0 | 0.00 | 0.00 | 0.00 | 51 | 1011.6 |
| 20260503201023 | 78 | 27 | 2.0 | 4.0 | 0.00 | 0.00 | 0.00 | 46 | 1011.6 |
| 20260503200527 | 77 | 17 | 3.0 | 4.0 | 0.00 | 0.00 | 0.00 | 43 | 1011.6 |
| 20260503200038 | 77 | 15 | 1.0 | 3.0 | 0.00 | 0.00 | 0.00 | 44 | 1011.7 |
| 20260503195523 | 77 | 25 | 1.0 | 3.0 | 0.00 | 0.00 | 0.00 | 44 | 1011.7 |
| 20260503195026 | 76 | 25 | 1.0 | 3.0 | 0.00 | 0.00 | 0.00 | 47 | 1011.8 |
| 20260503194535 | 76 | 25 | 1.0 | 4.0 | 0.00 | 0.00 | 0.00 | 46 | 1011.9 |
| 20260503194023 | 76 | 30 | 2.0 | 4.0 | 0.00 | 0.00 | 0.00 | 45 | 1012.0 |
| 20260503193524 | 76 | 27 | 2.0 | 3.0 | 0.00 | 0.00 | 0.00 | 47 | 1012.0 |
| 20260503193042 | 75 | 30 | 2.0 | 3.0 | 0.00 | 0.00 | 0.00 | 45 | 1012.1 |
| 20260503192523 | 75 | 23 | 1.0 | 2.0 | 0.00 | 0.00 | 0.00 | 49 | 1012.2 |
| 20260503192024 | 74 | 23 | 1.0 | 2.0 | 0.00 | 0.00 | 0.00 | 48 | 1012.2 |
| 20260503191555 | 74 | 23 | 2.0 | 2.0 | 0.00 | 0.00 | 0.00 | 49 | 1012.2 |
| 20260503191025 | 73 | 21 | 1.0 | 2.0 | 0.00 | 0.00 | 0.00 | 54 | 1012.4 |
| 20260503190525 | 73 | 22 | 1.0 | 2.0 | 0.00 | 0.00 | 0.00 | 59 | 1012.4 |
| 20260503190040 | 73 | 22 | 1.0 | 2.0 | 0.00 | 0.00 | 0.00 | 56 | 1012.4 |
| 20260503185526 | 72 | 23 | 2.0 | 3.0 | 0.00 | 0.00 | 0.00 | 55 | 1012.6 |
| 20260503185025 | 72 | 21 | 1.0 | 3.0 | 0.00 | 0.00 | 0.00 | 52 | 1012.6 |
| 20260503184544 | 72 | 32 | 1.0 | 2.0 | 0.00 | 0.00 | 0.00 | 52 | 1012.7 |
| 20260503184026 | 71 | 32 | 2.0 | 2.0 | 0.00 | 0.00 | 0.00 | 52 | 1012.8 |
| 20260503183524 | 71 | 32 | 1.0 | 2.0 | 0.00 | 0.00 | 0.00 | 53 | 1012.9 |
| 20260503183043 | 70 | 32 | 1.0 | 2.0 | 0.00 | 0.00 | 0.00 | 56 | 1013.0 |
| 20260503182524 | 70 | 32 | 1.0 | 3.0 | 0.00 | 0.00 | 0.00 | 55 | 1013.0 |
| 20260503182025 | 69 | 32 | 1.0 | 3.0 | 0.00 | 0.00 | 0.00 | 55 | 1013.1 |
| 20260503181543 | 69 | 39 | 1.0 | 2.0 | 0.00 | 0.00 | 0.00 | 57 | 1013.1 |
| 20260503181025 | 67 | 39 | 1.0 | 2.0 | 0.00 | 0.00 | 0.00 | 60 | 1013.0 |
| 20260503180525 | 67 | 159 | 0.0 | 1.0 | 0.00 | 0.00 | 0.00 | 64 | 1013.1 |
| 20260503180042 | 66 | 159 | 0.0 | 2.0 | 0.00 | 0.00 | 0.00 | 70 | 1013.1 |
| 20260503175525 | 65 | 160 | 0.0 | 3.0 | 0.00 | 0.00 | 0.00 | 75 | 1013.1 |
| 20260503175024 | 64 | 160 | 1.0 | 4.0 | 0.00 | 0.00 | 0.00 | 77 | 1013.2 |
| 20260503174551 | 64 | 218 | 2.0 | 4.0 | 0.00 | 0.00 | 0.00 | 81 | 1013.3 |
| 20260503174024 | 63 | 204 | 3.0 | 5.0 | 0.00 | 0.00 | 0.00 | 83 | 1013.3 |
| 20260503173525 | 62 | 207 | 1.0 | 5.0 | 0.00 | 0.00 | 0.00 | 80 | 1013.3 |
| 20260503173037 | 62 | 224 | 1.0 | 4.0 | 0.00 | 0.00 | 0.00 | 82 | 1013.3 |
| 20260503172523 | 61 | 171 | 2.0 | 4.0 | 0.00 | 0.00 | 0.00 | 83 | 1013.4 |
| 20260503172024 | 61 | 146 | 0.0 | 2.0 | 0.00 | 0.00 | 0.00 | 84 | 1013.4 |
| 20260503171537 | 60 | 0 | 0.0 | 2.0 | 0.00 | 0.00 | 0.00 | 84 | 1013.4 |
| 20260503171029 | 60 | 146 | 0.0 | 2.0 | 0.00 | 0.00 | 0.00 | 85 | 1013.4 |
| 20260503170525 | 59 | 146 | 0.0 | 2.0 | 0.00 | 0.00 | 0.00 | 85 | 1013.5 |
| 20260503150530 | 53 | 134 | 0.0 | 1.0 | 0.00 | 0.00 | 0.00 | 92 | 1013.8 |
| 20260503131025 | 50 | 0 | 0.0 | 0.0 | 0.00 | 0.00 | 0.00 | 93 | 1013.6 |
| 20260503130522 | 50 | 0 | 0.0 | 0.0 | 0.00 | 0.00 | 0.00 | 93 | 1013.6 |
| 20260503110528 | 51 | 132 | 0.0 | 0.0 | 0.00 | 0.00 | 0.00 | 90 | 1013.8 |
| 20260503081554 | 53 | 0 | 0.0 | 0.0 | 0.00 | 0.00 | 0.00 | 89 | 1014.2 |
| 20260503081024 | 53 | 141 | 0.0 | 0.0 | 0.00 | 0.00 | 0.00 | 89 | 1014.3 |
| 20260503080524 | 53 | 0 | 0.0 | 0.0 | 0.00 | 0.00 | 0.00 | 88 | 1014.2 |
| 20260503072527 | 55 | 0 | 0.0 | 0.0 | 0.00 | 0.00 | 0.00 | 86 | 1013.9 |
| 20260503072023 | 55 | 0 | 0.0 | 0.0 | 0.00 | 0.00 | 0.00 | 85 | 1014.0 |
| 20260503071600 | 55 | 0 | 0.0 | 0.0 | 0.00 | 0.00 | 0.00 | 85 | 1014.0 |
| 20260503071023 | 56 | 0 | 0.0 | 0.0 | 0.00 | 0.00 | 0.00 | 84 | 1014.0 |
| 20260503070527 | 56 | 0 | 0.0 | 0.0 | 0.00 | 0.00 | 0.00 | 84 | 1014.0 |
| 20260503055024 | 57 | 143 | 0.0 | 1.0 | 0.00 | 0.00 | 0.00 | 83 | 1013.7 |
| 20260503054551 | 57 | 143 | 0.0 | 1.0 | 0.00 | 0.00 | 0.00 | 81 | 1013.7 |
| 20260503054025 | 58 | 143 | 0.0 | 1.0 | 0.00 | 0.00 | 0.00 | 80 | 1013.7 |
| 20260503053525 | 58 | 143 | 1.0 | 1.0 | 0.00 | 0.00 | 0.00 | 78 | 1013.7 |
| 20260503053041 | 58 | 143 | 0.0 | 1.0 | 0.00 | 0.00 | 0.00 | 79 | 1013.7 |
| 20260503052525 | 58 | 143 | 0.0 | 2.0 | 0.00 | 0.00 | 0.00 | 80 | 1013.7 |
| 20260503052024 | 59 | 143 | 1.0 | 2.0 | 0.00 | 0.00 | 0.00 | 80 | 1013.7 |
| 20260503051548 | 59 | 143 | 0.0 | 2.0 | 0.00 | 0.00 | 0.00 | 78 | 1013.7 |
| 20260503051027 | 59 | 143 | 1.0 | 2.0 | 0.00 | 0.00 | 0.00 | 79 | 1013.7 |
| 20260503050524 | 59 | 143 | 0.0 | 2.0 | 0.00 | 0.00 | 0.00 | 77 | 1013.5 |
| 20260503050040 | 60 | 143 | 1.0 | 2.0 | 0.00 | 0.00 | 0.00 | 79 | 1013.4 |
| 20260503045525 | 60 | 143 | 0.0 | 2.0 | 0.00 | 0.00 | 0.00 | 76 | 1013.4 |
| 20260503045030 | 60 | 143 | 0.0 | 2.0 | 0.00 | 0.00 | 0.00 | 78 | 1013.4 |
| 20260503044537 | 60 | 143 | 0.0 | 2.0 | 0.00 | 0.00 | 0.00 | 77 | 1013.3 |
| 20260503044024 | 61 | 143 | 1.0 | 2.0 | 0.00 | 0.00 | 0.00 | 77 | 1013.2 |
| 20260503043526 | 61 | 0 | 0.0 | 2.0 | 0.00 | 0.00 | 0.00 | 76 | 1013.2 |
| 20260503043036 | 61 | 143 | 0.0 | 2.0 | 0.00 | 0.00 | 0.00 | 77 | 1013.2 |
| 20260503042525 | 61 | 149 | 1.0 | 2.0 | 0.00 | 0.00 | 0.00 | 78 | 1013.2 |
| 20260503042025 | 62 | 148 | 1.0 | 2.0 | 0.00 | 0.00 | 0.00 | 76 | 1013.0 |
| 20260503041535 | 63 | 149 | 2.0 | 2.0 | 0.00 | 0.00 | 0.00 | 73 | 1012.9 |
| 20260503041025 | 63 | 147 | 1.0 | 3.0 | 0.00 | 0.00 | 0.00 | 69 | 1012.9 |
| 20260503040527 | 63 | 146 | 1.0 | 3.0 | 0.00 | 0.00 | 0.00 | 72 | 1012.8 |
| 20260503040044 | 63 | 160 | 1.0 | 3.0 | 0.00 | 0.00 | 0.00 | 73 | 1012.7 |
| 20260503035524 | 63 | 158 | 1.0 | 3.0 | 0.00 | 0.00 | 0.00 | 74 | 1012.5 |
| 20260503035026 | 63 | 149 | 1.0 | 2.0 | 0.00 | 0.00 | 0.00 | 74 | 1012.5 |
| 20260503034543 | 64 | 212 | 1.0 | 3.0 | 0.00 | 0.00 | 0.00 | 74 | 1012.5 |
| 20260503034024 | 64 | 212 | 1.0 | 3.0 | 0.00 | 0.00 | 0.00 | 69 | 1012.4 |
| 20260503033525 | 65 | 158 | 1.0 | 2.0 | 0.00 | 0.00 | 0.00 | 68 | 1012.3 |
| 20260503033050 | 66 | 146 | 1.0 | 2.0 | 0.00 | 0.00 | 0.00 | 68 | 1012.2 |
| 20260503032525 | 67 | 154 | 0.0 | 2.0 | 0.00 | 0.00 | 0.00 | 63 | 1012.2 |
| 20260503032025 | 67 | 154 | 1.0 | 3.0 | 0.00 | 0.00 | 0.00 | 62 | 1012.1 |
| 20260503031538 | 68 | 150 | 0.0 | 3.0 | 0.00 | 0.00 | 0.00 | 59 | 1012.2 |
| 20260503031025 | 69 | 150 | 1.0 | 3.0 | 0.00 | 0.00 | 0.00 | 60 | 1012.1 |
| 20260503030526 | 70 | 144 | 1.0 | 2.0 | 0.00 | 0.00 | 0.00 | 55 | 1012.1 |
| 20260503030043 | 71 | 139 | 0.0 | 2.0 | 0.00 | 0.00 | 0.00 | 54 | 1012.0 |
| 20260503025525 | 71 | 142 | 0.0 | 4.0 | 0.00 | 0.00 | 0.00 | 54 | 1011.9 |
| 20260503025026 | 72 | 146 | 1.0 | 4.0 | 0.00 | 0.00 | 0.00 | 52 | 1011.9 |
| 20260503024547 | 73 | 79 | 0.0 | 2.0 | 0.00 | 0.00 | 0.00 | 51 | 1012.0 |
| 20260503024025 | 74 | 79 | 1.0 | 2.0 | 0.00 | 0.00 | 0.00 | 49 | 1011.9 |
| 20260503023525 | 74 | 71 | 1.0 | 5.0 | 0.00 | 0.00 | 0.00 | 47 | 1011.8 |
| 20260503023045 | 75 | 120 | 1.0 | 5.0 | 0.00 | 0.00 | 0.00 | 49 | 1011.7 |
| 20260503022525 | 75 | 41 | 1.0 | 5.0 | 0.00 | 0.00 | 0.00 | 48 | 1011.7 |
| 20260503022026 | 75 | 102 | 1.0 | 5.0 | 0.00 | 0.00 | 0.00 | 47 | 1011.7 |
| 20260503021543 | 76 | 30 | 1.0 | 4.0 | 0.00 | 0.00 | 0.00 | 45 | 1011.7 |
| 20260503021026 | 77 | 25 | 1.0 | 4.0 | 0.00 | 0.00 | 0.00 | 45 | 1011.7 |
| 20260503020529 | 77 | 36 | 1.0 | 4.0 | 0.00 | 0.00 | 0.00 | 45 | 1011.6 |
| 20260503020047 | 76 | 9 | 2.0 | 4.0 | 0.00 | 0.00 | 0.00 | 48 | 1011.6 |
| 20260503015526 | 78 | 16 | 2.0 | 5.0 | 0.00 | 0.00 | 0.00 | 45 | 1011.6 |
| 20260503015026 | 78 | 26 | 3.0 | 7.0 | 0.00 | 0.00 | 0.00 | 42 | 1011.7 |
| 20260503014551 | 77 | 33 | 3.0 | 7.0 | 0.00 | 0.00 | 0.00 | 43 | 1011.6 |
| 20260503014027 | 77 | 22 | 3.0 | 7.0 | 0.00 | 0.00 | 0.00 | 46 | 1011.6 |
| 20260503013526 | 78 | 17 | 2.0 | 5.0 | 0.00 | 0.00 | 0.00 | 42 | 1011.6 |
| 20260503013045 | 78 | 13 | 3.0 | 5.0 | 0.00 | 0.00 | 0.00 | 42 | 1011.7 |
| 20260503012525 | 79 | 11 | 3.0 | 4.0 | 0.00 | 0.00 | 0.00 | 42 | 1011.7 |
| 20260503012028 | 79 | 79 | 2.0 | 4.0 | 0.00 | 0.00 | 0.00 | 44 | 1011.7 |
| 20260503011543 | 78 | 29 | 1.0 | 6.0 | 0.00 | 0.00 | 0.00 | 45 | 1011.6 |
| 20260503011030 | 77 | 33 | 2.0 | 6.0 | 0.00 | 0.00 | 0.00 | 44 | 1011.6 |
| 20260503010526 | 76 | 39 | 3.0 | 5.0 | 0.00 | 0.00 | 0.00 | 47 | 1011.6 |
| 20260503010037 | 73 | 35 | 1.0 | 4.0 | 0.00 | 0.00 | 0.00 | 52 | 1011.7 |
| 20260503005525 | 72 | 224 | 2.0 | 4.0 | 0.00 | 0.00 | 0.00 | 60 | 1011.8 |
| 20260503005026 | 72 | 206 | 2.0 | 6.0 | 0.00 | 0.00 | 0.00 | 59 | 1011.8 |
| 20260503004538 | 71 | 172 | 3.0 | 6.0 | 0.00 | 0.00 | 0.00 | 65 | 1011.9 |
| 20260503004026 | 71 | 217 | 4.0 | 7.0 | 0.00 | 0.00 | 0.00 | 62 | 1011.9 |
| 20260503003526 | 71 | 212 | 4.0 | 7.0 | 0.00 | 0.00 | 0.00 | 63 | 1011.9 |
| 20260503003043 | 71 | 205 | 4.0 | 7.0 | 0.00 | 0.00 | 0.00 | 64 | 1012.0 |
| 20260503002525 | 71 | 214 | 4.0 | 7.0 | 0.00 | 0.00 | 0.00 | 65 | 1011.9 |
| 20260503002024 | 71 | 214 | 4.0 | 7.0 | 0.00 | 0.00 | 0.00 | 63 | 1012.0 |
| 20260503001543 | 71 | 232 | 5.0 | 9.0 | 0.00 | 0.00 | 0.00 | 60 | 1011.9 |
| 20260503001026 | 71 | 224 | 5.0 | 9.0 | 0.00 | 0.00 | 0.00 | 62 | 1012.1 |
| 20260503000526 | 71 | 207 | 6.0 | 9.0 | 0.00 | 0.00 | 0.00 | 62 | 1012.1 |
| 20260503000041 | 72 | 207 | 5.0 | 8.0 | 0.00 | 0.00 | 0.00 | 61 | 1012.1 |
| 20260502235526 | 72 | 204 | 5.0 | 6.0 | 0.00 | 0.00 | 0.00 | 59 | 1012.2 |
| 20260502235026 | 72 | 210 | 3.0 | 6.0 | 0.00 | 0.00 | 0.00 | 61 | 1012.1 |
| 20260502234547 | 72 | 203 | 4.0 | 7.0 | 0.00 | 0.00 | 0.00 | 59 | 1012.3 |
| 20260502234025 | 71 | 206 | 5.0 | 7.0 | 0.00 | 0.00 | 0.00 | 61 | 1012.3 |
| 20260502233525 | 71 | 201 | 4.0 | 6.0 | 0.00 | 0.00 | 0.00 | 61 | 1012.5 |